User: anonymous   Login
Location: PACMO
(41.3967°N, 90.3760°W)
Time: 08:49:58
(UTC-05:00)
Language:

NOAA 19 - Orbit

View from above orbital plane
View from above orbital plane
View from above satellite
View from above satellite

Ground track
Ground track

The orbit data is extracted from the following two-line orbital elements,

1 33591U 09005A   17173.86617707 +.00000046 +00000-0 +50045-4 0  9994
2 33591 099.0928 140.7718 0012910 255.6554 104.3183 14.12189151431194
Epoch (UTC): 22 June 2017 20:47:17
Eccentricity: 0.0012910
inclination: 99.0928°
perigee height: 842 km
apogee height: 861 km
right ascension of ascending node: 140.7718°
argument of perigee: 255.6554°
revolutions per day: 14.12189151
mean anomaly at epoch: 104.3183°
orbit number at epoch: 43119

The dashed part of the orbit path shows where the satellite is in the earth's shadow,  

DLR